When you browse on this site, cookies collect data to enhance your experience and personalize the content and advertising you see.
Visit our Privacy Policy to learn more. By continuing to use the site, you agree to this use of cookies and data.
  • In Austria
  • List of Countries
  • For 7 days
  • Water Temperature
  • Weather Map
  • News
  • Weather Widgets
  • user-avatar
    Login

    Hourly Weather Montana

    Today, 25 January, Saturday

    Time Temperature Precipitation Wind Pressure Humidity
    00:00 +3°C° 0 mm 1 mps 741 mmHg 49%
    01:00 +4°C° 0 mm 1 mps 740 mmHg 48%
    02:00 +4°C° 0 mm 1 mps 740 mmHg 48%
    03:00 +3°C° 0 mm 2 mps 740 mmHg 47%
    04:00 +3°C° 0 mm 2 mps 739 mmHg 46%
    05:00 +3°C° 0 mm 2 mps 739 mmHg 46%
    06:00 +3°C° 0 mm 2 mps 739 mmHg 46%
    07:00 +3°C° 0 mm 2 mps 739 mmHg 47%
    08:00 +4°C° 0 mm 2 mps 740 mmHg 50%
    09:00 +5°C° 0 mm 2 mps 740 mmHg 50%
    10:00 +7°C° 0 mm 2 mps 740 mmHg 50%
    11:00 +10°C° 0 mm 1 mps 740 mmHg 50%
    12:00 +11°C° 0 mm 1 mps 739 mmHg 49%
    13:00 +12°C° 0 mm 1 mps 739 mmHg 48%
    14:00 +13°C° 0 mm 1 mps 739 mmHg 47%
    15:00 +12°C° 0 mm 1 mps 739 mmHg 53%
    16:00 +11°C° 0 mm 1 mps 739 mmHg 59%
    17:00 +10°C° 0 mm 1 mps 738 mmHg 65%
    18:00 +9°C° 0 mm 1 mps 739 mmHg 67%
    19:00 +8°C° 0 mm 1 mps 739 mmHg 70%
    20:00 +6°C° 0 mm 2 mps 739 mmHg 72%
    21:00 +6°C° 0 mm 2 mps 739 mmHg 72%
    22:00 +6°C° 0 mm 2 mps 739 mmHg 73%
    23:00 +6°C° 0 mm 2 mps 739 mmHg 73%

    Tomorrow, 26 January, Sunday

    Time Temperature Precipitation Wind Pressure Humidity
    00:00 +6°C° 0 mm 2 mps 739 mmHg 74%
    01:00 +6°C° 0 mm 2 mps 739 mmHg 74%
    02:00 +7°C° 0 mm 1 mps 739 mmHg 74%
    03:00 +7°C° 0 mm 1 mps 739 mmHg 76%
    04:00 +7°C° 0 mm 1 mps 739 mmHg 77%
    05:00 +7°C° 0 mm 1 mps 739 mmHg 79%
    06:00 +6°C° 0 mm 1 mps 739 mmHg 80%
    07:00 +6°C° 0 mm 1 mps 739 mmHg 81%
    08:00 +6°C° 0 mm 1 mps 739 mmHg 82%
    09:00 +7°C° 0 mm 1 mps 739 mmHg 77%
    10:00 +9°C° 0 mm 1 mps 739 mmHg 72%
    11:00 +10°C° 0 mm 1 mps 740 mmHg 66%
    12:00 +11°C° 0 mm 1 mps 739 mmHg 64%
    13:00 +11°C° 0 mm 1 mps 739 mmHg 62%
    14:00 +12°C° 0 mm 1 mps 738 mmHg 61%
    15:00 +11°C° 0 mm 1 mps 738 mmHg 64%
    16:00 +10°C° 0 mm 1 mps 738 mmHg 68%
    17:00 +9°C° 0 mm 1 mps 738 mmHg 72%
    18:00 +9°C° 0 mm 1 mps 738 mmHg 74%
    19:00 +8°C° 0 mm 1 mps 738 mmHg 75%
    20:00 +6°C° 0 mm 0 mps 738 mmHg 77%
    21:00 +6°C° 0 mm 0 mps 738 mmHg 78%
    22:00 +7°C° 0 mm 1 mps 738 mmHg 78%
    23:00 +7°C° 0 mm 1 mps 738 mmHg 78%

    Day after tomorrow, 27 January, Monday

    Time Temperature Precipitation Wind Pressure Humidity
    00:00 +6°C° 0 mm 1 mps 738 mmHg 80%
    01:00 +6°C° 0 mm 1 mps 737 mmHg 82%
    02:00 +5°C° 0 mm 1 mps 737 mmHg 83%
    03:00 +4°C° 0 mm 0 mps 737 mmHg 84%
    04:00 +4°C° 0 mm 0 mps 737 mmHg 85%
    05:00 +4°C° 0 mm 0 mps 736 mmHg 86%
    06:00 +3°C° 0 mm 0 mps 736 mmHg 86%
    07:00 +3°C° 0 mm 0 mps 736 mmHg 86%
    08:00 +3°C° 0 mm 0 mps 736 mmHg 86%
    09:00 +4°C° 0 mm 0 mps 736 mmHg 82%
    10:00 +5°C° 0 mm 0 mps 736 mmHg 78%
    11:00 +7°C° 0 mm 1 mps 736 mmHg 74%
    12:00 +7°C° 0.2 mm 1 mps 736 mmHg 77%
    13:00 +7°C° 0.2 mm 1 mps 735 mmHg 79%
    14:00 +7°C° 0.2 mm 1 mps 735 mmHg 82%
    15:00 +5°C° 0.5 mm 0 mps 735 mmHg 85%
    16:00 +5°C° 0.5 mm 0 mps 734 mmHg 89%
    17:00 +4°C° 0.5 mm 0 mps 734 mmHg 92%
    18:00 +4°C° 0.4 mm 0 mps 734 mmHg 93%
    19:00 +5°C° 0.4 mm 0 mps 734 mmHg 93%
    20:00 +5°C° 0.4 mm 0 mps 734 mmHg 94%
    21:00 +5°C° 0 mm 0 mps 734 mmHg 94%
    22:00 +5°C° 0 mm 0 mps 734 mmHg 94%
    23:00 +5°C° 0 mm 0 mps 734 mmHg 94%

    28 January, Tuesday

    Time Temperature Precipitation Wind Pressure Humidity
    00:00 +5°C° 0 mm 0 mps 734 mmHg 94%
    01:00 +5°C° 0 mm 0 mps 734 mmHg 93%
    02:00 +5°C° 0 mm 0 mps 733 mmHg 93%
    03:00 +6°C° 0 mm 1 mps 733 mmHg 92%
    04:00 +6°C° 0 mm 1 mps 733 mmHg 92%
    05:00 +5°C° 0 mm 1 mps 733 mmHg 91%
    06:00 +5°C° 0 mm 1 mps 732 mmHg 90%
    07:00 +5°C° 0 mm 1 mps 732 mmHg 89%
    08:00 +5°C° 0 mm 1 mps 732 mmHg 89%
    09:00 +6°C° 0 mm 1 mps 732 mmHg 83%
    10:00 +7°C° 0 mm 1 mps 732 mmHg 77%
    11:00 +9°C° 0 mm 1 mps 732 mmHg 71%
    12:00 +9°C° 0 mm 1 mps 731 mmHg 67%
    13:00 +10°C° 0 mm 1 mps 731 mmHg 64%
    14:00 +11°C° 0 mm 1 mps 730 mmHg 60%
    15:00 +10°C° 0 mm 1 mps 730 mmHg 63%
    16:00 +10°C° 0 mm 1 mps 730 mmHg 67%
    17:00 +9°C° 0 mm 1 mps 730 mmHg 70%
    18:00 +9°C° 0 mm 1 mps 730 mmHg 72%
    19:00 +8°C° 0 mm 1 mps 730 mmHg 74%
    20:00 +7°C° 0 mm 2 mps 731 mmHg 77%
    21:00 +7°C° 0 mm 2 mps 731 mmHg 76%
    22:00 +7°C° 0 mm 2 mps 731 mmHg 76%
    23:00 +7°C° 0 mm 3 mps 731 mmHg 76%

    29 January, Wednesday

    Time Temperature Precipitation Wind Pressure Humidity
    00:00 +5°C° 0 mm 3 mps 730 mmHg 76%
    01:00 +5°C° 0 mm 3 mps 730 mmHg 76%
    02:00 +5°C° 0 mm 3 mps 730 mmHg 75%
    03:00 +5°C° 0 mm 3 mps 730 mmHg 75%
    04:00 +5°C° 0 mm 3 mps 729 mmHg 74%
    05:00 +5°C° 0 mm 3 mps 729 mmHg 73%
    06:00 +5°C° 0 mm 3 mps 729 mmHg 74%
    07:00 +5°C° 0 mm 3 mps 729 mmHg 75%
    08:00 +6°C° 0 mm 2 mps 729 mmHg 76%
    09:00 +6°C° 0.3 mm 2 mps 729 mmHg 79%
    10:00 +6°C° 0.3 mm 2 mps 729 mmHg 83%
    11:00 +6°C° 0.3 mm 2 mps 729 mmHg 87%
    12:00 +7°C° 0.5 mm 2 mps 729 mmHg 84%
    13:00 +8°C° 0.5 mm 2 mps 728 mmHg 82%
    14:00 +9°C° 0.5 mm 1 mps 728 mmHg 80%
    15:00 +9°C° 0.2 mm 1 mps 728 mmHg 81%
    16:00 +9°C° 0.2 mm 1 mps 728 mmHg 83%
    17:00 +9°C° 0.2 mm 1 mps 728 mmHg 85%
    18:00 +9°C° 0.4 mm 1 mps 728 mmHg 86%
    19:00 +7°C° 0.4 mm 2 mps 729 mmHg 86%
    20:00 +7°C° 0.4 mm 2 mps 729 mmHg 87%
    21:00 +7°C° 0.6 mm 2 mps 729 mmHg 88%
    22:00 +7°C° 0.6 mm 2 mps 730 mmHg 89%
    23:00 +7°C° 0.6 mm 2 mps 730 mmHg 90%

    30 January, Thursday

    Time Temperature Precipitation Wind Pressure Humidity
    00:00 +6°C° 0.3 mm 2 mps 730 mmHg 86%
    01:00 +5°C° 0.3 mm 3 mps 731 mmHg 82%
    02:00 +4°C° 0.3 mm 3 mps 731 mmHg 78%
    03:00 +4°C° 0.2 mm 3 mps 731 mmHg 78%
    04:00 +3°C° 0.2 mm 3 mps 731 mmHg 77%
    05:00 +3°C° 0.2 mm 2 mps 732 mmHg 77%
    06:00 +3°C° 0 mm 2 mps 732 mmHg 77%
    07:00 +3°C° 0 mm 2 mps 732 mmHg 76%
    08:00 +2°C° 0 mm 2 mps 733 mmHg 76%
    09:00 +4°C° 0 mm 2 mps 733 mmHg 65%
    10:00 +5°C° 0 mm 2 mps 733 mmHg 55%
    11:00 +5°C° 0 mm 3 mps 734 mmHg 44%
    12:00 +5°C° 0 mm 3 mps 734 mmHg 42%
    13:00 +6°C° 0 mm 4 mps 734 mmHg 40%
    14:00 +7°C° 0 mm 4 mps 734 mmHg 38%
    15:00 +6°C° 0 mm 4 mps 734 mmHg 44%
    16:00 +5°C° 0 mm 4 mps 735 mmHg 50%
    17:00 +4°C° 0 mm 4 mps 735 mmHg 56%
    18:00 +3°C° 0 mm 3 mps 736 mmHg 60%
    19:00 +3°C° 0 mm 3 mps 736 mmHg 65%
    20:00 +2°C° 0 mm 3 mps 737 mmHg 70%
    21:00 +1°C° 0 mm 3 mps 737 mmHg 71%
    22:00 +2°C° 0 mm 2 mps 737 mmHg 72%
    23:00 +2°C° 0 mm 2 mps 738 mmHg 73%
    Show more